Velovelo
Português Nederlands 日本語 中文
Español English čeština slovenčina
русский italiano polski norsk
français Deutsch svenska عربي
 
 الصفحة السابقة
 أرسل إلى صديقك
 طباعة التقرير
 ---> La Robert Mintkewicz 2009 : Résultats du 110 km

ClasDos...Nom PrénomCat.C.c. Temps....Moy..........
1 423 REGAUX Jean-Jacques hf 1 2:43:34 40.348
2 430 WANNEZ Dimitri hf 2 2:43:36 40.340
3 504 PELLETIER David he 1 2:46:30 39.639
4 512 BLONDIAUX Nicolas he 2 2:46:30 39.638
5 42 HOUDART Philippe he 3 2:46:30 39.637
6 443 CADRON Olivier hf 3 2:46:31 39.635
7 448 VANDENBROUCKE Jean-Jacques hh 1 2:46:31 39.633
8 432 SCHAILLIE Peter hf 4 2:46:32 39.631
9 302 DELHAYE Florent hd 1 2:46:32 39.630
10 374 BELKHIR Ian he 4 2:46:32 39.629
11 442 MARTHE Romuald he 5 2:46:33 39.626
12 455 WELLENS Eric hf 5 2:46:35 39.616
13 429 DENOGELLE Thomas hd 2 2:47:09 39.485
14 301 VAN DE MEULEBROEKE Arnaud hf 6 2:47:10 39.478
15 422 CROCHON Francois hf 7 2:47:10 39.478
16 182 CECCALDI Stephane he 6 2:47:11 39.478
17 536 JEWULA Philippe hf 8 2:47:11 39.475
18 364 LORRIAUX Julien hd 3 2:47:11 39.474
19 438 LECERF Olivier hf 9 2:47:14 39.463
20 371 LEWIS Andrew he 7 2:47:31 39.395
21 506 DUBELLOY Herve he 8 2:47:57 39.297
22 376 DAUCHY Jean-François hf 10 2:51:45 38.426
23 501 CROCHON Jean Pierre hh 2 2:51:45 38.426
24 410 HENNUY Eric hf 11 2:51:45 38.425
25 454 NOEL Guy hf 12 2:51:46 38.423
26 524 DUQUESNOY Eric he 9 2:51:46 38.421
27 388 GRAVE Julien hd 4 2:51:46 38.421
27 180 BOURSIER Franck hd 4 2:51:46 38.421
29 387 DANEL Jean-Pierre hg 1 2:51:47 38.419
30 511 DMYTROW Nicolas he 10 2:51:47 38.419
31 525 POTIER Gaston xxx 1 2:51:48 38.416
32 452 DELEVACQUE Antony hd 6 2:51:48 38.415
33 503 COCQUET Laurent he 11 2:51:48 38.414
34 375 DAUCHY Remy hd 7 2:51:48 38.413
35 373 HUNTINGTONN Nicolas he 12 2:51:49 38.412
36 367 LEPRINCE Mickael hd 8 2:51:49 38.411
37 418 MEERSMAN Laurens hf 13 2:51:50 38.409
38 537 BOCQUET Mathias he 13 2:51:50 38.409
39 508 BONNAY Jerome he 14 2:51:51 38.405
40 419 CENT Nicolas he 15 2:51:51 38.403
41 395 FLAN Guillaume he 16 2:51:52 38.401
42 409 DUBOIS Jean-Claude hf 14 2:51:53 38.396
43 354 DELHAYE Rudy hd 9 2:51:54 38.394
44 502 DECHAMPS Mickael he 17 2:51:54 38.392
45 352 LANFRANCHI Sébastien he 18 2:51:55 38.390
46 444 JEDRZEJOWSKI Michael he 19 2:52:09 38.336
47 390 VOULOIR Dominique he 20 2:52:16 38.311
48 526 PARSAT Franck he 21 2:52:48 38.194
49 372 WEAVER Samuel he 22 2:55:14 37.663
50 402 CAUFFRIEZ Pascal hf 15 2:55:44 37.554
51 425 COCQUET Etienne he 23 2:59:33 36.758
52 379 OBJOIE Gregory he 24 2:59:33 36.756
53 403 CECI Armando hf 16 2:59:34 36.752
54 540 HOCQUET Joël hg 2 2:59:36 36.748
55 408 DEWINTER Gautier hf 17 2:59:36 36.746
56 541 HELLE Fabrice hf 18 2:59:36 36.746
57 421 LEGRAND Laurent hf 19 2:59:37 36.743
58 516 DANNEL Didier he 25 2:59:37 36.743
59 358 RICHARD Thierry hf 20 2:59:38 36.741
60 404 CHEVALIER François Xavier hd 10 2:59:38 36.740
61 400 BORGNE Michel hh 3 2:59:39 36.737
62 362 LECAUT Jean-Claude xxx 2 2:59:39 36.736
63 305 REGOST Sebastien he 26 2:59:39 36.736
64 532 MENERET Nicolas he 27 2:59:40 36.733
65 415 TOUSSAINT Olivier he 28 2:59:40 36.733
66 514 DANNA Matthieu hd 11 2:59:41 36.731
67 303 DELHAYE Régis hg 3 2:59:43 36.722
68 543 GARROIT Jean-Marc hf 21 2:59:44 36.720
69 396 URBANSKI Philippe he 29 2:59:44 36.719
70 509 DELVA Jackie hh 4 2:59:44 36.719
71 534 FACHE Philippe hg 4 3:03:14 36.020
72 381 DEBRUILLE Mathieu he 30 3:03:41 35.931
73 310 LAMBERT Jérome hd 12 3:03:42 35.927
74 394 BIGAILLON Philippe hf 22 3:04:39 35.742
75 456 SALOMEZ Thierry he 31 3:06:04 35.469
76 513 GHESQUIERE Jean-René hg 5 3:06:12 35.444
77 518 LACROIX Frederic he 32 3:06:12 35.443
78 535 PINATON Bernard hh 5 3:06:13 35.441
79 399 DEDUFFELEER David hf 23 3:06:14 35.439
80 531 MENERET Sebastien hf 24 3:06:14 35.438
81 353 DUSART Pascal hg 6 3:06:15 35.436
82 445 MALHOMME Patrick hg 7 3:06:15 35.435
83 522 BÉZILLE José hf 25 3:06:16 35.432
84 380 MUNSCH Christophe hf 26 3:06:16 35.431
85 361 DUBOIS Olivier hf 27 3:06:16 35.430
86 414 SZABATOWSKA Michel hh 6 3:06:18 35.425
87 384 MONDIN Sylvio hf 28 3:06:18 35.424
88 440 VIEVILLE Olivier he 33 3:06:23 35.411
89 447 DULART Jean-Marc hf 29 3:06:24 35.407
90 389 HAUREZ Jean-Marie xxx 3 3:06:41 35.353
91 431 OLIVIER Danny hg 8 3:06:55 35.308
92 309 GLINEUR Michael he 34 3:08:07 35.083
93 122 SEYNS Pieter hd 13 3:09:03 34.909
94 542 AUZERAL Benoit hf 30 3:10:44 34.603
95 405 CORNEZ Michel hf 31 3:11:23 34.485
96 451 DUPONT Stephane he 35 3:13:25 34.121
97 359 RICHARD Nicolas hd 14 3:17:03 33.493
98 112 DUBOIS Jean-Paul hh 7 3:17:03 33.492
99 439 COINTE Christian hf 32 3:17:07 33.481
100 539 LEROUGE Serge he 36 3:17:11 33.470
101 80 MERMILLIOD Alain hh 8 3:17:45 33.375
102 357 GOUBET Pascal hf 33 3:17:45 33.374
103 391 KOSTYK Christian xxx 4 3:17:45 33.373
104 545 MANGOT Thomas xxx 5 3:18:28 33.254
105 311 FUMERON Emmanuel xxx 6 3:18:29 33.250
106 138 DELAIRE Dominique hg 9 3:18:30 33.249
107 398 CARRE Romuald hg 10 3:18:35 33.234
108 377 DUPUIS Alain hh 9 3:18:41 33.218
109 548 MERIAUX Christophe hf 34 3:21:53 32.691
110 549 MERIAUX Thomas hd 15 3:21:53 32.690
111 449 VANLERBERGHE Francois he 37 3:22:37 32.574
112 355 ENSCH Daniel hf 35 3:22:39 32.567
113 378 LUCAS Bruno xxx 7 3:22:40 32.564
114 505 MAROTTA Angelo he 38 3:22:40 32.564
115 386 FRONTINI Michel hg 11 3:22:41 32.563
116 369 GOUGET Denis hf 36 3:22:42 32.559
117 527 BENOIT Jean Michel hg 12 3:22:45 32.551
118 521 GHYS Laurent hf 37 3:22:46 32.550
119 366 GAUDRY Gerard hh 10 3:22:59 32.513
120 441 DELROT Grégory he 39 3:24:09 32.329
121 550 CAUDRILLIER Damien hf 38 3:28:25 31.667
122 413 STAGNITTO Filippo hf 39 3:28:59 31.581
123 407 DELRIVIERE Pascal hf 40 3:28:59 31.580
124 416 VANUSCORP Jean-Michel hf 41 3:30:34 31.342
125 437 PINHEIRO Abel hf 42 3:30:45 31.315
126 436 BALOCHE Guillaume he 40 3:30:46 31.314
127 433 CAILLOTO David he 41 3:32:21 31.079
128 370 MACAREZ Philippe he 42 3:33:14 30.950
129 538 CARPENTIER Jacky xxx 8 3:33:15 30.949
130 360 MENNESON Fabrice he 43 3:38:51 30.158
131 401 CARTA Fabian he 44 3:38:53 30.152
132 453 DELEVACQUE Pierre-Yves hg 13 3:38:55 30.148
133 356 CRITELLI Serge hg 14 3:38:55 30.147
134 306 NR 306 xxx 9 3:39:38 30.049
135 308 MERVIN Valentin hd 16 3:40:47 29.892
136 363 TAISNE Fabrice he 45 3:40:47 29.891
137 365 MERVIN Jean-Yves hf 43 3:40:48 29.890
138 424 HACHE Jean hg 15 3:40:48 29.889
139 385 DEMAIN Laurent he 46 3:41:05 29.852
140 426 SANCY Fernand hf 44 3:41:06 29.850
141 517 TALDO Johann xxx 10 3:46:33 29.133
142 368 CHAKER Lasser he 47 3:46:35 29.128
143 546 CHAMPAGNE Jean-Jacques he 48 3:46:35 29.127
144 547 DUSSART Jerome hf 45 3:46:48 29.100
145 153 LEBRUN Christian hg 16 3:50:00 28.695
146 507 THIERRI Alain hf 46 3:50:01 28.692
147 393 FALSE Jean-Jacques hf 47 3:50:13 28.667
148 382 DELVALLEZ Marc hf 48 3:50:59 28.572
149 392 MESSIAEN Anthony he 49 3:56:04 27.957
150 304 JOZWIAK Raymond hh 11 3:56:42 27.882
151 533 HAZARD Jean Jacques hg 17 3:57:59 27.732
152 450 LECERF Grégory he 50 3:59:00 27.614
153 519 VANTIGHEM Gerard hh 12 4:02:43 27.192
154 520 VANTIGHEN Benoit he 51 4:02:44 27.190
155 307 MERLIN Laurent hf 49 4:02:49 27.179
156 515 BLEUSE Geoffroy he 52 4:06:02 26.825
157 160 BUHANT Jean-Luc hf 50 4:10:08 26.384
158 312 CAILLEAU Jean-Claude hh 13 4:59:26 22.041

إلى الأعلى 









إلى الأعلى  
 المجال الخاص   حقوق التألالنشر - جميع الحقوق محفوظة: اضغط هنا قراءة